EHI
3 1 0 0 0 0 0 0 0 0 0 0 0 0 0 0 0 0 0 0 0 0 0 0 0 0 0 0 0 1 0 0 1 1 0 0 0 0 0 0 0 0 0 0 0 0 0 0 0
1 0 0 0 0 0 0 0 0 0 0 0 0 0 0 0 0 0 0 0 0 0 0 0 0 0 0 0 0 1 0 0 1 1 0 0 0 0 0 0 0 0 0 0 0 0 0 0 0
0 0 0 0 0 0 0 0 0 0 0 0 0 0 0 0 0 0 0 0 0 0 0 0 0 0 0 0 0 1 1 0 1 1 0 0 0 0 0 0 0 0 0 0 0 0 0 0 0
0 0 0 0 0 0 0 0 0 0 0 0 0 0 0 0 0 0 0 0 0 0 0 0 0 0 0 0 0 0 1 0 0 0 0 0 0 0 0 0 0 0 0 0 0 0 0 0 0
0 0 0 0 0 0 0 0 0 0 0 0 0 0 0 0 0 0 0 0 0 0 0 0 0 0 0 0 0 0 1 1 0 0 0 0 0 0 0 0 0 0 0 0 0 0 0 0 0
0 0 0 0 0 0 0 0 0 0 0 0 0 0 0 0 0 0 0 0 0 0 0 0 0 0 0 0 0 0 1 2 2 1 0 1 1 1 1 1 0 0 0 0 0 0 0 0 0
0 0 0 0 0 0 0 0 0 0 0 0 0 0 0 0 0 0 0 0 0 0 0 0 0 0 0 0 0 0 1 2 3 2 1 1 2 2 2 1 1 0 0 0 0 0 0 0 0
0 0 0 0 0 0 0 0 0 0 0 0 0 0 0 0 0 0 0 0 0 0 0 0 0 0 0 0 0 0 0 1 1 1 1 2 3 2 2 1 0 0 0 0 0 0 0 0 0
0 0 0 0 0 0 0 0 0 0 0 0 0 0 0 0 0 0 0 0 0 0 0 0 0 0 0 0 0 0 0 0 0 0 1 2 2 1 1 0 0 0 0 0 0 0 0 0 0
0 0 0 0 0 0 0 0 0 0 0 0 0 0 0 0 0 0 0 0 0 0 0 0 0 0 0 0 0 0 0 0 0 0 0 1 1 0 0 0 0 0 0 0 0 0 0 0 0
0 0 0 0 0 0 0 0 0 0 0 0 0 0 0 0 0 0 0 0 0 0 0 0 0 0 0 0 0 0 0 0 0 0 0 0 0 0 0 0 0 0 0 0 0 0 0 0 0
0 0 0 0 0 0 0 0 0 0 0 0 0 0 0 0 0 0 0 0 0 0 0 0 0 0 0 0 0 0 0 0 0 0 0 0 0 0 0 0 0 0 0 0 0 0 0 0 0
0 0 0 0 0 0 0 0 0 0 0 0 0 0 0 0 0 0 0 0 0 0 0 0 0 0 0 0 0 0 0 0 0 0 0 0 0 0 0 0 0 0 0 0 0 0 0 0 0
0 0 0 0 0 0 0 0 0 0 0 0 0 0 0 0 0 0 0 0 0 0 0 0 0 0 0 0 0 0 0 0 0 0 0 0 0 0 0 0 0 0 0 0 0 0 0 0 0
0 0 0 0 0 0 0 0 0 0 0 0 0 0 0 0 0 0 0 0 0 0 0 0 0 0 0 0 0 0 0 0 0 0 0 0 0 0 0 0 0 0 0 0 0 0 0 0 0
0 0 0 0 0 0 0 0 0 0 0 0 0 0 0 0 0 0 0 0 0 0 0 0 0 0 0 0 0 0 0 0 0 0 0 0 0 0 0 0 0 0 0 0 0 0 0 0 0
0 0 0 0 0 0 0 0 0 0 0 0 0 0 0 0 0 0 0 0 0 0 0 0 0 0 0 0 0 0 0 0 0 0 0 0 0 0 0 0 0 0 0 0 0 0 0 0 0
0 0 0 0 0 0 0 0 0 0 0 0 0 0 0 0 0 0 0 0 0 0 0 0 0 0 0 0 0 0 0 0 0 0 0 0 0 0 0 0 0 0 0 0 0 0 0 0 0
0 0 0 0 0 0 0 0 0 0 0 0 0 0 0 0 0 0 0 0 0 0 0 0 0 0 0 0 0 0 0 0 0 0 0 0 0 0 0 0 0 0 0 0 0 0 0 0 0
0 0 0 0 0 0 0 0 0 0 0 0 0 0 0 0 0 0 0 0 0 0 0 0 0 0 0 0 0 0 0 0 0 0 0 0 0 0 0 0 0 0 0 0 0 0 0 0 0
0 0 0 0 0 0 0 0 0 0 0 0 0 0 0 0 0 0 0 0 0 0 0 0 0 0 0 0 0 0 0 0 0 0 0 0 0 0 0 0 0 0 0 0 0 0 0 0 0
0 0 0 0 0 0 0 0 0 0 0 0 0 0 0 0 0 0 0 0 0 0 0 0 0 0 0 0 0 0 0 0 0 0 0 0 0 0 0 0 0 0 0 0 0 0 0 0 0
0 0 0 0 0 0 0 0 0 0 0 0 0 0 0 0 0 0 0 0 0 0 0 0 0 0 0 0 0 0 0 0 0 0 0 0 0 0 0 0 0 0 0 0 0 0 0 0 0
0 0 0 0 0 0 0 0 0 0 0 0 0 0 0 0 0 0 0 0 0 0 0 0 0 0 0 0 0 0 0 0 0 0 0 0 0 0 0 0 0 0 0 0 0 0 0 0 0
0 0 0 0 0 0 0 0 0 0 0 0 0 0 0 0 0 0 1 0 0 0 0 0 0 0 0 0 0 0 0 0 0 0 0 0 0 0 0 0 0 0 0 0 0 0 0 0 0
0 0 0 0 0 0 0 0 0 0 0 0 0 0 0 0 0 0 0 0 0 0 0 0 0 0 0 0 0 0 0 0 0 0 0 0 0 0 0 0 0 0 0 0 0 0 0 0 0
0 0 0 0 0 0 0 0 0 0 0 0 0 0 0 0 0 0 0 0 0 0 0 0 0 0 0 0 0 0 0 0 0 0 0 0 0 0 0 0 0 0 0 0 0 0 0 0 0
0 0 0 0 0 0 0 0 0 0 0 0 0 0 0 0 0 0 0 0 0 0 0 0 0 0 0 0 0 0 0 0 0 0 0 0 0 0 0 0 0 0 0 0 0 0 0 0 0
0 0 0 0 0 0 0 0 0 0 0 0 0 0 0 0 0 0 0 0 0 0 0 0 0 0 0 0 0 0 0 0 0 0 0 0 0 0 0 0 0 0 0 0 0 0 0 0 0
0 0 0 0 0 0 0 0 0 0 0 0 0 0 0 0 0 0 0 0 0 0 0 0 0 0 0 0 0 0 0 0 0 0 0 0 0 0 0 0 0 0 0 0 0 0 0 0 0
Wind_Speed
3 2 2 3 5 6 3 1 0 1 2 2 3 5 5 4 2 2 1 2 2 2 2 3 5 6 6 7 7 8 8 8 8 8 8 9 9 9 9 9 9 9 9 9 9 9 9 9 8
1 1 4 4 5 4 1 1 1 1 2 3 4 4 5 4 2 2 1 1 3 3 2 2 5 6 7 7 7 8 8 8 8 8 8 8 8 8 9 9 9 9 9 9 9 9 9 9 9
1 2 4 4 4 3 2 1 1 2 2 2 3 4 4 2 2 2 1 3 4 3 2 2 5 6 7 7 7 7 7 7 8 8 7 8 8 8 8 8 8 8 8 8 8 8 8 8 9
3 4 5 6 4 0 1 1 2 2 3 4 3 4 3 2 2 2 3 4 4 3 2 2 5 6 7 7 7 7 7 7 7 7 7 7 7 7 8 8 8 8 8 8 8 8 8 9 9
4 4 6 4 2 1 1 0 1 2 2 3 3 4 3 3 4 5 5 4 4 3 2 2 5 5 6 6 6 7 7 7 7 7 7 7 7 7 7 7 8 8 8 8 8 8 9 9 9
4 5 5 2 1 1 1 1 2 3 3 2 3 3 2 2 3 4 4 4 3 3 2 2 3 4 5 5 5 6 6 6 6 6 6 6 6 6 6 7 8 8 8 9 9 8 9 9 9
4 4 4 3 1 1 0 1 3 3 3 2 3 4 1 1 2 3 4 4 3 3 3 2 2 2 3 4 4 5 5 5 5 5 5 5 5 5 6 6 7 8 8 9 9 9 9 9 9
4 5 3 2 2 0 1 1 2 3 2 2 3 4 3 2 3 4 4 4 3 2 2 2 2 3 3 2 3 3 4 4 4 4 4 4 4 5 5 6 6 7 8 9 9 9 10 10 10
3 6 2 2 3 1 0 2 2 2 4 3 2 1 2 6 6 5 3 2 2 1 1 1 1 2 2 1 2 2 3 3 4 3 3 4 3 3 3 4 5 7 7 8 9 10 10 10 10
5 4 2 2 3 2 1 2 2 3 3 2 3 3 5 6 6 5 3 2 2 1 1 1 1 0 1 1 2 2 2 2 2 2 2 2 2 2 3 4 6 7 7 8 9 10 9 8 5
3 3 1 0 2 3 2 2 2 5 1 3 4 4 5 5 5 4 3 3 3 2 1 1 2 1 1 0 1 1 1 1 1 2 1 2 2 2 3 2 3 4 6 5 6 6 4 4 4
2 0 1 0 2 2 2 2 2 2 3 3 5 7 7 6 5 4 4 3 2 2 2 1 2 2 1 1 0 0 0 1 1 1 1 2 1 1 2 2 2 2 2 3 3 3 5 5 5
2 1 1 2 3 2 3 2 2 0 1 3 5 6 6 6 4 3 3 3 2 2 2 2 2 2 2 1 1 1 1 1 0 1 1 2 1 1 2 2 2 2 2 3 3 3 4 4 4
1 1 2 2 2 1 3 1 1 1 3 5 5 5 5 5 4 3 3 3 3 3 2 2 2 2 2 2 1 1 1 1 1 1 1 2 2 2 2 2 2 2 2 3 3 3 4 4 4
2 3 4 2 1 1 3 2 2 2 4 4 4 4 4 4 3 3 4 3 3 3 2 2 2 2 2 2 2 1 1 1 1 1 1 2 2 3 3 2 2 2 2 3 3 4 3 4 4
4 4 2 3 0 1 3 3 4 2 5 4 4 4 4 3 3 3 3 3 2 2 2 2 2 2 2 2 2 1 1 1 1 1 1 2 2 3 3 3 2 2 3 3 3 3 4 3 3
4 2 1 3 1 1 2 4 4 2 4 5 4 4 4 3 3 3 3 3 3 3 2 2 1 2 2 2 1 1 1 1 1 1 1 1 2 3 3 3 2 3 3 3 3 3 3 3 3
1 1 1 3 2 1 2 4 4 3 4 5 4 4 4 5 5 3 2 2 2 2 2 2 2 2 2 2 2 1 1 1 1 1 1 2 2 3 3 3 3 3 3 3 3 4 3 3 3
2 2 2 4 2 1 3 5 5 3 4 5 4 4 4 6 4 2 2 2 2 2 2 2 2 2 2 2 1 1 1 0 0 1 1 2 2 3 3 3 3 3 3 3 4 4 4 2 2
2 1 2 2 1 0 2 4 4 3 4 5 6 6 6 4 2 2 2 2 2 2 2 2 2 2 2 1 1 2 2 1 1 0 1 1 2 3 3 3 3 3 3 4 4 3 3 1 1
1 3 3 2 2 3 2 5 4 3 1 2 3 3 4 5 5 3 3 3 2 3 3 3 3 2 2 2 2 2 2 2 1 1 0 0 2 2 3 3 3 3 3 3 3 3 4 2 0
2 3 2 1 1 2 1 3 6 3 3 2 3 3 4 4 4 3 3 3 3 3 3 3 3 3 2 3 3 4 3 2 2 1 1 1 1 2 2 3 3 3 3 3 3 2 2 3 2
3 1 2 1 2 1 2 1 7 2 3 5 4 4 4 4 4 4 4 4 3 2 2 2 3 3 2 3 4 4 2 2 1 1 1 1 1 1 2 3 3 3 3 3 2 2 2 2 2
2 5 5 4 4 1 2 2 6 3 5 4 3 3 3 3 3 3 2 2 1 1 1 2 3 2 2 3 3 3 3 2 2 2 2 1 0 1 1 2 2 2 2 3 2 2 2 2 2
5 5 4 5 4 4 2 2 7 5 4 3 3 3 2 2 2 2 2 2 2 2 2 3 3 2 2 3 3 3 3 4 3 3 3 2 1 1 2 2 3 2 2 2 2 2 2 2 2
1 6 6 3 3 4 2 3 6 4 2 1 1 1 1 1 2 2 3 3 3 2 2 3 3 2 2 3 2 2 3 2 2 2 2 3 2 2 2 3 3 3 3 3 3 2 2 2 2
3 2 5 5 1 1 4 5 7 3 4 4 4 4 2 0 1 2 1 1 2 2 3 3 3 3 2 2 2 2 2 2 2 2 2 2 2 2 3 3 2 3 3 3 3 2 2 2 2
4 6 4 4 2 2 5 3 4 4 3 2 2 2 2 1 1 0 1 1 2 2 2 2 3 3 3 2 2 2 2 2 2 2 2 2 2 2 2 2 3 3 3 3 3 2 2 2 1
2 3 4 3 4 4 2 6 4 4 3 3 3 2 1 1 0 1 1 1 0 0 1 1 1 2 2 2 2 2 1 2 2 2 2 2 2 2 3 3 3 3 3 3 3 3 2 2 2
3 4 6 4 3 3 3 7 3 2 3 2 2 1 1 1 0 0 0 1 1 1 0 0 1 1 2 2 2 2 2 2 2 2 2 2 2 2 2 3 3 3 3 3 3 3 3 3 2
Wind_Direction
12 47 73 58 56 54 48 359 16 26 42 42 57 74 87 76 82 124 282 128 124 127 133 135 126 122 112 110 108 109 109 107 105 102 101 99 98 98 95 93 91 87 82 80 78 75 78 77 78
12 67 56 59 77 75 16 322 76 99 145 136 69 69 73 66 70 100 69 122 119 121 111 126 128 124 116 113 109 107 108 109 108 105 102 102 101 98 95 93 90 88 82 78 76 75 77 76 75
47 56 76 67 81 129 155 238 116 79 98 90 72 58 74 76 103 138 163 129 110 105 98 127 132 127 122 117 113 109 111 112 111 107 103 102 101 97 93 91 88 85 82 80 77 75 74 75 76
75 47 55 67 75 87 166 175 135 102 56 48 81 68 59 38 131 138 123 117 109 100 94 124 133 133 131 128 123 117 113 114 111 107 102 100 98 96 92 89 86 82 80 79 78 76 73 77 79
62 73 64 61 44 3 339 309 123 91 61 46 69 81 48 5 83 112 117 115 113 103 90 108 124 130 131 129 124 122 120 119 114 108 105 99 96 94 91 86 82 78 78 80 79 77 76 79 81
56 64 81 93 50 1 3 26 100 82 87 80 81 87 56 46 93 119 116 112 107 102 80 75 120 125 124 125 122 121 123 124 118 113 109 105 99 93 88 83 80 77 75 79 79 79 76 76 78
93 84 102 119 109 23 9 56 105 106 92 96 110 101 96 113 122 120 110 103 91 85 77 46 41 73 104 118 120 118 116 117 116 114 108 102 96 91 87 85 82 78 77 77 76 78 75 74 76
110 95 82 85 119 186 346 75 80 100 100 84 94 129 168 185 134 110 95 88 85 75 67 51 33 38 38 42 107 112 108 102 103 105 103 94 83 78 74 74 78 80 78 77 77 78 77 74 75
81 75 105 172 165 195 85 88 59 68 89 62 52 125 161 131 121 107 92 78 92 115 72 70 44 32 28 20 65 77 91 85 75 70 74 69 55 51 55 69 76 79 76 76 75 76 77 73 71
76 101 182 201 178 161 118 103 120 89 72 59 53 53 102 116 129 136 144 160 175 194 205 174 168 156 33 37 47 32 44 54 55 51 53 56 59 52 52 56 69 72 73 72 73 74 73 68 60
87 141 189 61 145 135 117 95 102 125 144 194 173 157 138 132 140 155 172 183 199 206 217 193 182 162 140 107 68 39 43 44 45 51 55 63 60 53 50 48 49 58 65 64 65 64 65 65 64
88 67 137 128 111 110 122 121 96 151 204 185 166 156 151 154 168 179 184 191 190 190 220 212 174 167 178 174 133 129 97 71 51 46 80 85 74 65 66 65 61 64 69 73 67 71 71 69 65
70 24 27 63 78 94 95 97 111 164 100 112 127 141 161 174 184 191 189 190 188 197 217 214 189 189 188 176 183 167 168 155 131 91 106 113 108 102 89 77 73 74 79 84 79 76 77 71 65
79 57 35 45 69 70 108 71 85 237 118 123 141 168 184 190 190 185 187 198 206 210 213 206 205 199 178 180 190 204 180 161 137 133 140 129 130 129 111 95 82 77 85 89 87 84 84 76 71
75 59 20 15 71 100 97 356 237 197 140 150 173 190 199 207 199 207 210 204 206 208 203 203 198 176 180 188 192 184 175 156 141 153 141 139 141 135 125 116 102 96 98 96 91 82 80 81 72
55 55 5 309 63 138 120 257 262 169 157 190 204 209 215 226 220 225 218 204 201 194 188 205 196 165 177 175 174 163 132 132 142 143 136 137 143 138 127 122 116 112 105 103 102 94 86 77 71
34 51 299 305 236 136 157 242 260 174 178 210 219 220 225 243 245 233 220 203 187 183 177 177 168 156 164 153 129 121 115 126 139 125 120 131 133 134 128 128 126 118 108 106 112 96 101 97 85
241 223 269 274 275 138 204 247 263 214 202 220 223 224 227 236 240 234 220 197 169 165 163 153 141 139 134 110 92 85 81 72 92 115 123 127 123 126 125 126 121 115 108 100 107 105 91 98 96
169 180 247 263 260 180 231 258 266 244 219 230 228 222 226 239 246 222 203 173 153 149 146 150 151 145 129 116 127 133 140 149 95 136 127 134 132 133 131 131 124 121 122 129 125 114 100 88 96
151 169 256 287 330 170 264 281 283 232 223 218 213 217 223 234 238 215 196 172 176 176 174 165 169 161 163 152 152 146 141 144 157 88 82 112 132 140 143 138 137 134 127 124 127 123 117 118 95
187 187 220 251 350 25 13 327 309 289 272 249 226 223 223 219 220 213 199 199 191 194 193 185 180 176 177 154 126 106 77 60 60 63 79 76 129 138 137 141 138 140 140 149 154 147 139 149 125
248 230 198 169 69 321 43 306 295 295 307 270 252 238 232 228 216 204 200 205 206 213 198 178 170 175 180 162 154 152 158 168 191 186 176 117 126 137 137 136 139 142 141 150 163 150 150 147 162
220 46 99 103 133 8 3 181 289 330 283 270 255 240 236 224 211 203 207 212 209 197 187 172 163 179 178 165 163 157 157 167 146 133 123 110 116 133 140 142 141 145 152 158 161 150 157 156 162
113 61 53 48 68 353 269 180 284 267 247 271 267 245 235 220 209 205 202 184 183 165 151 151 164 185 172 163 157 158 158 148 139 159 162 162 140 137 144 140 144 150 155 163 172 166 168 165 159
70 77 31 4 11 266 277 208 256 270 261 242 250 250 233 194 181 185 175 169 179 172 157 149 154 167 163 161 166 172 171 167 177 187 181 176 182 191 192 165 161 166 170 164 153 149 166 170 170
133 129 147 196 237 285 322 247 264 290 305 327 23 33 66 136 177 190 196 187 189 183 164 157 165 176 169 166 171 164 170 172 186 188 176 184 195 199 186 176 176 179 172 168 159 158 172 160 171
127 138 157 135 171 289 291 297 305 356 13 19 24 33 28 34 200 210 200 187 196 191 185 179 181 185 180 176 168 160 169 172 176 175 171 182 190 188 179 175 181 186 178 171 162 163 168 156 173
126 140 100 113 146 274 299 290 271 306 315 341 352 343 321 335 353 297 224 216 209 201 194 173 183 191 188 178 182 174 181 180 171 160 176 179 182 176 175 174 181 184 179 173 161 163 167 151 175
86 96 107 119 153 161 264 276 240 237 249 245 259 274 271 262 268 273 258 246 195 107 115 162 178 172 170 179 180 166 173 166 156 165 184 178 168 165 176 176 175 179 174 175 165 173 171 169 180
163 164 145 152 218 176 187 266 282 250 257 233 260 283 268 216 203 268 322 38 58 75 81 181 201 191 189 174 164 172 166 146 147 170 180 163 156 156 169 169 169 178 175 172 173 180 174 179 191